User: anonymous   Login
Location: Lawrence Hall of Science
(37.8785°N, 122.2415°W)
Time: 18:59:37
(UTC-08:00)
Language:

ARGOS - Orbit

View from above orbital plane
View from above orbital plane
View from above satellite
View from above satellite

Ground track
Ground track

The orbit data is extracted from the following two-line orbital elements,

1 25634U 99008A   14331.30061990  .00000072  00000-0  55407-4 0  3220
2 25634 098.7423 036.8194 0010224 020.7511 027.7136 14.19191533816144
Epoch (UTC): 27 November 2014 07:12:53
Eccentricity: 0.0010224
inclination: 98.7423°
perigee height: 821 km
apogee height: 835 km
right ascension of ascending node: 36.8194°
argument of perigee: 20.7511°
revolutions per day: 14.19191533
mean anomaly at epoch: 27.7136°
orbit number at epoch: 81614

The dashed part of the orbit path shows where the satellite is in the earth's shadow,  

DLR